Weather History for Milledgeville, GA

Change the Weather History Date:

Thursday, March 21, 2013

  Actual Average (KOKZ) Record (KOKZ)
Temperature  
Mean Temperature 47 °F -  
Max Temperature 55 °F 70 °F 72 °F (2014)
Min Temperature 39 °F 44 °F 33 °F (2014)
Degree Days  
Heating Degree Days 18    
Moisture  
Dew Point 24 °F    
Average Humidity 46    
Maximum Humidity 70    
Minimum Humidity 18    
Precipitation  
Precipitation 0.00 in - - ()
Sea Level Pressure  
Sea Level Pressure 29.93 in    
Wind  
Wind Speed 5 mph (WNW)    
Max Wind Speed 14 mph    
Max Gust Speed 22 mph    
Visibility 10 miles    
Events      
Averages and records for this station are not official NWS values.
T = Trace of Precipitation, MM = Missing Value Source: NWS Daily Summary

Daily Weather History Graph

Daily Weather History Graph

Search for Another Location

Airport:

Trip Planner

Search our weather history database for the weather conditions in past years. The results will help you decide how hot, cold, wet, or windy it might be!

Date:

Astronomy

Mar. 21, 2013 Rise Set
Actual Time 7:35 AM EDT 7:45 PM EDT
Civil Twilight 7:10 AM EDT 8:10 PM EDT
Nautical Twilight 6:41 AM EDT 8:39 PM EDT
Astronomical Twilight 6:12 AM EDT 9:08 PM EDT
Moon 2:28 PM EDT (3/21) 3:40 AM EDT (3/21)
Length of Visible Light 12h 59m
Length of Day
12h 10m
Waxing Gibbous, 68% of the Moon is Illuminated
Mar 21
Waxing Gibbous
Mar 27
Full
Apr 3
Last Quarter
Apr 10
New
Apr 18
First Quarter

Hourly Weather History & Observations

Time (EDT) Temp. Windchill Dew Point Humidity Pressure Visibility Wind Dir Wind Speed Gust Speed Precip Events Conditions
12:15 AM 46.4 °F 45.2 °F 28.4 °F 50% 29.91 in 10.0 mi WNW 3.5 mph - N/A   Clear
12:35 AM 46.4 °F - 28.4 °F 50% 29.91 in 10.0 mi Calm Calm - N/A   Clear
12:55 AM 46.4 °F 45.2 °F 28.4 °F 50% 29.90 in 10.0 mi West 3.5 mph - N/A   Clear
1:15 AM 46.4 °F 45.2 °F 28.4 °F 50% 29.90 in 10.0 mi West 3.5 mph - N/A   Clear
1:35 AM 46.4 °F 45.2 °F 28.4 °F 50% 29.89 in 10.0 mi West 3.5 mph - N/A   Clear
2:15 AM 44.6 °F 42.2 °F 30.2 °F 57% 29.91 in 10.0 mi West 4.6 mph - N/A   Clear
2:35 AM 46.4 °F 42.9 °F 30.2 °F 53% 29.91 in 10.0 mi WNW 6.9 mph - N/A   Clear
2:55 AM 46.4 °F 43.5 °F 30.2 °F 53% 29.92 in 10.0 mi NW 5.8 mph - N/A   Clear
3:15 AM 46.4 °F 44.3 °F 32.0 °F 57% 29.91 in 10.0 mi NNW 4.6 mph - N/A   Clear
3:35 AM 46.4 °F 42.9 °F 30.2 °F 53% 29.91 in 10.0 mi NW 6.9 mph - N/A   Clear
3:55 AM 44.6 °F 42.2 °F 30.2 °F 57% 29.91 in 10.0 mi NW 4.6 mph - N/A   Clear
4:15 AM 44.6 °F 41.4 °F 30.2 °F 57% 29.91 in 10.0 mi NW 5.8 mph - N/A   Clear
4:35 AM 44.6 °F 43.1 °F 30.2 °F 57% 29.91 in 10.0 mi WNW 3.5 mph - N/A   Clear
4:55 AM 42.8 °F 40.1 °F 30.2 °F 61% 29.91 in 10.0 mi WNW 4.6 mph - N/A   Clear
5:15 AM 42.8 °F 39.3 °F 30.2 °F 61% 29.91 in 10.0 mi WNW 5.8 mph - N/A   Clear
5:35 AM 42.8 °F 39.3 °F 30.2 °F 61% 29.92 in 10.0 mi WNW 5.8 mph - N/A   Clear
5:55 AM 41.0 °F - 32.0 °F 70% 29.92 in 10.0 mi Calm Calm - N/A   Clear
6:15 AM 41.0 °F 37.1 °F 30.2 °F 65% 29.93 in 10.0 mi WNW 5.8 mph - N/A   Clear
6:35 AM 41.0 °F 39.0 °F 30.2 °F 65% 29.93 in 10.0 mi West 3.5 mph - N/A   Clear
6:55 AM 41.0 °F 38.0 °F 30.2 °F 65% 29.93 in 10.0 mi West 4.6 mph - N/A   Clear
7:15 AM 41.0 °F 36.4 °F 30.2 °F 65% 29.94 in 10.0 mi WNW 6.9 mph - N/A   Clear
7:35 AM 41.0 °F 37.1 °F 30.2 °F 65% 29.93 in 10.0 mi WNW 5.8 mph - N/A   Clear
7:55 AM 41.0 °F 37.1 °F 28.4 °F 61% 29.93 in 10.0 mi NW 5.8 mph - N/A   Clear
8:15 AM 41.0 °F 35.8 °F 28.4 °F 61% 29.93 in 10.0 mi WNW 8.1 mph - N/A   Clear
8:55 AM 41.0 °F 35.8 °F 26.6 °F 57% 29.94 in 10.0 mi NW 8.1 mph - N/A   Clear
10:35 AM 44.6 °F 39.7 °F 17.6 °F 34% 29.98 in 10.0 mi NW 9.2 mph 20.7 mph N/A   Clear
11:15 AM 44.6 °F 38.1 °F 17.6 °F 34% 29.98 in 10.0 mi WNW 13.8 mph 17.3 mph N/A   Clear
11:55 AM 48.2 °F - 21.2 °F 34% 29.97 in 10.0 mi NW 8.1 mph - N/A   Clear
12:15 PM 48.2 °F - 14.0 °F 25% 29.97 in 10.0 mi WNW 12.7 mph 18.4 mph N/A   Clear
12:55 PM 50.0 °F - 8.6 °F 19% 29.97 in 10.0 mi NW 11.5 mph 21.9 mph N/A   Clear
1:15 PM 50.0 °F - 10.4 °F 20% 29.96 in 10.0 mi WNW 9.2 mph 19.6 mph N/A   Clear
1:35 PM 51.8 °F - 12.2 °F 21% 29.95 in 10.0 mi WNW 12.7 mph 20.7 mph N/A   Clear
1:55 PM 51.8 °F - 10.4 °F 19% 29.94 in 10.0 mi WNW 8.1 mph 17.3 mph N/A   Clear
5:15 PM 55.4 °F - 12.2 °F 18% 29.89 in 10.0 mi WNW 8.1 mph - N/A   Clear
5:35 PM 55.4 °F - 12.2 °F 18% 29.89 in 10.0 mi NW 5.8 mph - N/A   Clear
5:55 PM 55.4 °F - 14.0 °F 20% 29.90 in 10.0 mi WNW 9.2 mph - N/A   Clear
6:35 PM 53.6 °F - 14.0 °F 21% 29.91 in 10.0 mi NW 8.1 mph - N/A   Clear
6:55 PM 53.6 °F - 14.0 °F 21% 29.91 in 10.0 mi WNW 11.5 mph - N/A   Clear
7:15 PM 53.6 °F - 12.2 °F 19% 29.91 in 10.0 mi WNW 5.8 mph - N/A   Clear
7:35 PM 51.8 °F - 14.0 °F 22% 29.91 in 10.0 mi WNW 5.8 mph - N/A   Clear
7:55 PM 50.0 °F - 15.8 °F 26% 29.91 in 10.0 mi WNW 3.5 mph - N/A   Clear
8:15 PM 48.2 °F - 17.6 °F 30% 29.92 in 10.0 mi Calm Calm - N/A   Clear
8:35 PM 46.4 °F - 19.4 °F 34% 29.92 in 10.0 mi Calm Calm - N/A   Clear
8:55 PM 44.6 °F - 21.2 °F 39% 29.94 in 10.0 mi Calm Calm - N/A   Clear
9:15 PM 42.8 °F - 23.0 °F 46% 29.95 in 10.0 mi Calm Calm - N/A   Clear
9:35 PM 42.8 °F - 24.8 °F 49% 29.95 in 10.0 mi Calm Calm - N/A   Clear
9:55 PM 42.8 °F - 23.0 °F 46% 29.96 in 10.0 mi Calm Calm - N/A   Clear
10:15 PM 41.0 °F - 24.8 °F 53% 29.96 in 10.0 mi Calm Calm - N/A   Clear
10:35 PM 39.2 °F - 26.6 °F 61% 29.95 in 10.0 mi Calm Calm - N/A   Clear
10:55 PM 39.2 °F - 26.6 °F 61% 29.97 in 10.0 mi Calm Calm - N/A   Clear
11:15 PM 39.2 °F - 26.6 °F 61% 29.97 in 10.0 mi Calm Calm - N/A   Clear
11:35 PM 39.2 °F - 28.4 °F 65% 29.97 in 10.0 mi Calm Calm - N/A   Clear
11:55 PM 41.0 °F - 26.6 °F 57% 29.98 in 10.0 mi Calm Calm - N/A   Clear